CES7744 ZGSZ-ZSHC

Flight info

Callsign CES7744
Flight time 1h 27m
Altitude 31100
Route IDUMA1 IDUMA W41 ISLOM G471 PLT A599 ELNEX ELNEX91
Aircraft A320/M-SDE3FGHIRWY/LB1

Departure

Time 2026-05-08 10:57
Airport Shenzhen Bao'an International Airport (ZGSZ)

Arrival

Time 2026-05-08 12:25
Airport Hangzhou Xiaoshan International Airport (ZSHC)
Time Latitude Longitude Altitude Speed Heading
2026-05-08 10:40 22.62975 113.81091 13 ft 0 kts 237°
2026-05-08 10:49 22.62975 113.81092 12 ft 1 kts 237°
2026-05-08 10:49 22.62989 113.81114 11 ft 4 kts 234°
2026-05-08 10:50 22.63005 113.81137 13 ft 4 kts 231°
2026-05-08 10:50 22.63022 113.81159 10 ft 4 kts 227°
2026-05-08 10:50 22.63042 113.81180 11 ft 4 kts 220°
2026-05-08 10:50 22.63063 113.81197 11 ft 4 kts 203°
2026-05-08 10:51 22.63085 113.81201 11 ft 2 kts 154°
2026-05-08 10:51 22.63086 113.81201 11 ft 1 kts 153°
2026-05-08 10:53 22.63077 113.81206 13 ft 5 kts 152°
2026-05-08 10:53 22.63023 113.81237 10 ft 12 kts 152°
2026-05-08 10:53 22.62937 113.81285 12 ft 13 kts 153°
2026-05-08 10:54 22.62859 113.81328 13 ft 12 kts 152°
2026-05-08 10:54 22.62804 113.81381 12 ft 10 kts 99°
2026-05-08 10:54 22.62822 113.81443 13 ft 7 kts 103°
2026-05-08 10:54 22.62778 113.81476 13 ft 8 kts 153°
2026-05-08 10:55 22.62730 113.81502 15 ft 9 kts 153°
2026-05-08 10:55 22.62654 113.81545 15 ft 16 kts 153°
2026-05-08 10:55 22.62547 113.81603 14 ft 14 kts 155°
2026-05-08 10:55 22.62504 113.81661 13 ft 9 kts 86°
2026-05-08 10:56 22.62531 113.81719 13 ft 8 kts 63°
2026-05-08 10:56 22.62555 113.81770 13 ft 10 kts 63°
2026-05-08 10:56 22.62610 113.81780 13 ft 9 kts 334°
2026-05-08 10:56 22.62714 113.81724 13 ft 31 kts 333°
2026-05-08 10:57 22.63148 113.81487 10 ft 105 kts 333°
2026-05-08 10:57 22.63971 113.81034 16 ft 158 kts 333°
2026-05-08 10:57 22.66018 113.79918 1238 ft 166 kts 335°
2026-05-08 10:58 22.67093 113.79334 1692 ft 183 kts 335°
2026-05-08 10:58 22.68306 113.78671 2061 ft 208 kts 334°
2026-05-08 10:58 22.69673 113.77925 2542 ft 231 kts 334°
2026-05-08 10:58 22.71148 113.77118 2999 ft 241 kts 333°
2026-05-08 10:59 22.72688 113.76362 3676 ft 245 kts 346°
2026-05-08 10:59 22.74379 113.76456 4522 ft 250 kts 22°
2026-05-08 10:59 22.75786 113.77578 5377 ft 255 kts 45°
2026-05-08 10:59 22.76990 113.79004 6223 ft 260 kts 49°
2026-05-08 11:00 22.78158 113.80531 7032 ft 264 kts 50°
2026-05-08 11:00 22.79326 113.82084 7863 ft 267 kts 50°
2026-05-08 11:00 22.80517 113.83654 8582 ft 273 kts 49°
2026-05-08 11:00 22.81743 113.85240 8826 ft 274 kts 49°
2026-05-08 11:01 22.83006 113.86846 9200 ft 292 kts 48°
2026-05-08 11:01 22.84350 113.88538 9936 ft 299 kts 48°
2026-05-08 11:01 22.85759 113.90304 10293 ft 321 kts 47°
2026-05-08 11:01 22.87276 113.92201 10525 ft 345 kts 47°
2026-05-08 11:02 22.89067 113.94039 10709 ft 366 kts 34°
2026-05-08 11:02 22.93989 113.95913 11451 ft 387 kts
2026-05-08 11:02 22.96653 113.96366 12078 ft 391 kts
2026-05-08 11:03 22.99352 113.96835 12707 ft 395 kts
2026-05-08 11:03 23.02082 113.97316 13308 ft 399 kts
2026-05-08 11:03 23.04829 113.97802 13892 ft 403 kts
2026-05-08 11:03 23.07605 113.98291 14407 ft 406 kts
2026-05-08 11:04 23.10408 113.98783 14674 ft 408 kts
2026-05-08 11:04 23.13211 113.99274 14739 ft 408 kts
2026-05-08 11:04 23.16015 113.99763 14751 ft 407 kts
2026-05-08 11:04 23.18810 114.00251 14752 ft 407 kts
2026-05-08 11:05 23.21615 114.00739 14754 ft 407 kts
2026-05-08 11:05 23.24412 114.01222 14752 ft 407 kts
2026-05-08 11:05 23.27181 114.01881 14755 ft 409 kts 15°
2026-05-08 11:05 23.29820 114.03073 14750 ft 412 kts 26°
2026-05-08 11:06 23.32227 114.04781 14838 ft 417 kts 37°
2026-05-08 11:06 23.34493 114.06761 15380 ft 419 kts 37°
2026-05-08 11:06 23.36791 114.08733 15888 ft 422 kts 36°
2026-05-08 11:06 23.39121 114.10704 16374 ft 426 kts 36°
2026-05-08 11:07 23.41442 114.12661 16859 ft 429 kts 36°
2026-05-08 11:07 23.43811 114.14662 17336 ft 433 kts 36°
2026-05-08 11:07 23.46197 114.16690 17801 ft 437 kts 36°
2026-05-08 11:07 23.48595 114.18739 18250 ft 441 kts 36°
2026-05-08 11:08 23.51015 114.20813 18601 ft 444 kts 36°
2026-05-08 11:08 23.53448 114.22899 19030 ft 446 kts 36°
2026-05-08 11:08 23.55891 114.24994 19442 ft 448 kts 36°
2026-05-08 11:08 23.58350 114.27103 19839 ft 450 kts 36°
2026-05-08 11:09 23.60814 114.29219 20236 ft 453 kts 36°
2026-05-08 11:09 23.63297 114.31350 20645 ft 455 kts 36°
2026-05-08 11:09 23.65794 114.33489 21008 ft 458 kts 35°
2026-05-08 11:09 23.68329 114.35613 21380 ft 460 kts 34°
2026-05-08 11:10 23.70894 114.37714 21759 ft 462 kts 34°
2026-05-08 11:10 23.73482 114.39807 22123 ft 464 kts 34°
2026-05-08 11:10 23.76083 114.41905 22455 ft 466 kts 34°
2026-05-08 11:10 23.78693 114.44019 22800 ft 468 kts 34°
2026-05-08 11:11 23.81308 114.46150 23138 ft 470 kts 34°
2026-05-08 11:11 23.83931 114.48299 23484 ft 473 kts 34°
2026-05-08 11:11 23.86560 114.50464 23762 ft 475 kts 34°
2026-05-08 11:11 23.89201 114.52647 24009 ft 477 kts 34°
2026-05-08 11:12 23.91856 114.54845 24246 ft 480 kts 34°
2026-05-08 11:12 23.94524 114.57050 24496 ft 483 kts 34°
2026-05-08 11:12 23.97210 114.59265 24734 ft 485 kts 34°
2026-05-08 11:12 23.99914 114.61490 24961 ft 487 kts 33°
2026-05-08 11:13 24.02593 114.63697 25197 ft 489 kts 33°
2026-05-08 11:13 24.05315 114.65944 25431 ft 491 kts 34°
2026-05-08 11:13 24.08081 114.68230 25671 ft 493 kts 33°
2026-05-08 11:13 24.10791 114.70470 25900 ft 496 kts 33°
2026-05-08 11:14 24.13544 114.72747 26143 ft 497 kts 33°
2026-05-08 11:14 24.16317 114.75041 26388 ft 500 kts 33°
2026-05-08 11:14 24.19094 114.77335 26605 ft 502 kts 33°
2026-05-08 11:14 24.21892 114.79645 26827 ft 504 kts 33°
2026-05-08 11:15 24.24696 114.81954 27053 ft 505 kts 32°
2026-05-08 11:15 24.27673 114.83971 27260 ft 502 kts 23°
2026-05-08 11:15 24.30864 114.85478 27507 ft 497 kts 14°
2026-05-08 11:15 24.34175 114.86455 27822 ft 491 kts
2026-05-08 11:16 24.37511 114.87268 28170 ft 491 kts
2026-05-08 11:16 24.40846 114.88086 28517 ft 491 kts
2026-05-08 11:16 24.44172 114.88907 28884 ft 489 kts
2026-05-08 11:16 24.47491 114.89732 29247 ft 488 kts
2026-05-08 11:17 24.50802 114.90558 29580 ft 488 kts
2026-05-08 11:17 24.54112 114.91383 29915 ft 487 kts
2026-05-08 11:17 24.57416 114.92205 30243 ft 487 kts
2026-05-08 11:17 24.60674 114.93012 30527 ft 486 kts
2026-05-08 11:18 24.63973 114.93826 30853 ft 485 kts
2026-05-08 11:18 24.67264 114.94637 31089 ft 485 kts
2026-05-08 11:18 24.70552 114.95447 31162 ft 483 kts
2026-05-08 11:19 24.77085 114.97058 31165 ft 481 kts
2026-05-08 11:19 24.83626 114.98662 31168 ft 481 kts
2026-05-08 11:20 24.90156 115.00243 31173 ft 481 kts
2026-05-08 11:20 24.96700 115.01830 31176 ft 481 kts
2026-05-08 11:21 25.03241 115.03422 31178 ft 481 kts
2026-05-08 11:21 25.09768 115.05026 31171 ft 480 kts
2026-05-08 11:22 25.16292 115.06629 31170 ft 480 kts
2026-05-08 11:22 25.22816 115.08223 31191 ft 480 kts
2026-05-08 11:23 25.29335 115.09784 31182 ft 477 kts
2026-05-08 11:23 25.35825 115.09788 31179 ft 460 kts 344°
2026-05-08 11:24 25.41783 115.07599 31169 ft 448 kts 329°
2026-05-08 11:24 25.47426 115.04689 31169 ft 448 kts 330°
2026-05-08 11:25 25.53076 115.01793 31186 ft 448 kts 329°
2026-05-08 11:25 25.58691 114.98917 31194 ft 447 kts 329°
2026-05-08 11:26 25.64334 114.96028 31188 ft 447 kts 329°
2026-05-08 11:26 25.69969 114.93117 31191 ft 446 kts 329°
2026-05-08 11:27 25.75785 114.90654 31187 ft 458 kts 345°
2026-05-08 11:27 25.79005 114.90510 31186 ft 471 kts 359°
2026-05-08 11:27 25.82241 114.91327 31210 ft 485 kts 14°
2026-05-08 11:27 25.85261 114.93112 31202 ft 500 kts 30°
2026-05-08 11:28 25.87846 114.95746 31194 ft 509 kts 41°
2026-05-08 11:28 25.92699 115.01482 31183 ft 510 kts 41°
2026-05-08 11:29 25.97529 115.07268 31178 ft 511 kts 41°
2026-05-08 11:29 26.02369 115.13055 31179 ft 511 kts 41°
2026-05-08 11:30 26.07223 115.18836 31178 ft 511 kts 41°
2026-05-08 11:30 26.12087 115.24615 31183 ft 512 kts 41°
2026-05-08 11:31 26.16952 115.30411 31184 ft 512 kts 41°
2026-05-08 11:31 26.21810 115.36221 31199 ft 513 kts 41°
2026-05-08 11:32 26.26627 115.42005 31201 ft 512 kts 42°
2026-05-08 11:32 26.31510 115.47858 31212 ft 512 kts 41°
2026-05-08 11:33 26.36330 115.53629 31204 ft 512 kts 41°
2026-05-08 11:33 26.41175 115.59454 31211 ft 512 kts 41°
2026-05-08 11:34 26.46018 115.65286 31199 ft 512 kts 41°
2026-05-08 11:34 26.50861 115.71117 31229 ft 512 kts 41°
2026-05-08 11:35 26.55712 115.76960 31218 ft 513 kts 41°
2026-05-08 11:35 26.59769 115.81851 31214 ft 513 kts 41°
2026-05-08 11:36 26.64590 115.87682 31220 ft 514 kts 41°
2026-05-08 11:36 26.69432 115.93559 31216 ft 514 kts 41°
2026-05-08 11:37 26.74271 115.99432 31031 ft 511 kts 41°
2026-05-08 11:37 26.76678 116.02353 30175 ft 511 kts 42°
2026-05-08 11:37 26.79086 116.05268 29075 ft 513 kts 42°
2026-05-08 11:37 26.81505 116.08197 27958 ft 515 kts 42°
2026-05-08 11:38 26.83945 116.11158 27204 ft 518 kts 43°
2026-05-08 11:38 26.86388 116.14133 26895 ft 520 kts 43°
2026-05-08 11:38 26.88840 116.17124 26678 ft 522 kts 43°
2026-05-08 11:38 26.91296 116.20122 26718 ft 522 kts 43°
2026-05-08 11:39 26.93753 116.23120 26715 ft 523 kts 43°
2026-05-08 11:39 26.96224 116.26109 26720 ft 524 kts 42°
2026-05-08 11:39 26.98708 116.29092 26712 ft 524 kts 42°
2026-05-08 11:39 27.01201 116.32082 26709 ft 524 kts 42°
2026-05-08 11:40 27.03689 116.35071 26717 ft 525 kts 43°
2026-05-08 11:40 27.06179 116.38069 26722 ft 525 kts 43°
2026-05-08 11:40 27.08661 116.41064 26719 ft 525 kts 43°
2026-05-08 11:40 27.11144 116.44071 26718 ft 525 kts 43°
2026-05-08 11:41 27.13588 116.47040 26714 ft 525 kts 43°
2026-05-08 11:41 27.16067 116.50051 26727 ft 525 kts 43°
2026-05-08 11:41 27.18550 116.53062 26717 ft 525 kts 43°
2026-05-08 11:41 27.21064 116.56106 26719 ft 525 kts 43°
2026-05-08 11:42 27.23562 116.59090 26721 ft 524 kts 42°
2026-05-08 11:42 27.26090 116.62045 26726 ft 524 kts 41°
2026-05-08 11:42 27.28628 116.64973 26720 ft 523 kts 41°
2026-05-08 11:42 27.31142 116.67864 26718 ft 524 kts 41°
2026-05-08 11:43 27.33718 116.70833 26722 ft 523 kts 41°
2026-05-08 11:43 27.36253 116.73771 26721 ft 523 kts 41°
2026-05-08 11:43 27.38750 116.76684 26733 ft 523 kts 41°
2026-05-08 11:43 27.41272 116.79636 26717 ft 524 kts 41°
2026-05-08 11:44 27.43794 116.82592 26722 ft 524 kts 41°
2026-05-08 11:44 27.46319 116.85552 26722 ft 524 kts 41°
2026-05-08 11:44 27.48845 116.88514 26720 ft 524 kts 41°
2026-05-08 11:44 27.51371 116.91475 26723 ft 524 kts 41°
2026-05-08 11:45 27.53904 116.94435 26720 ft 524 kts 41°
2026-05-08 11:45 27.56443 116.97375 26724 ft 524 kts 41°
2026-05-08 11:45 27.58994 117.00309 26717 ft 524 kts 41°
2026-05-08 11:45 27.61546 117.03235 26731 ft 524 kts 41°
2026-05-08 11:46 27.64096 117.06168 26721 ft 524 kts 41°
2026-05-08 11:46 27.66647 117.09119 26723 ft 525 kts 41°
2026-05-08 11:46 27.69192 117.12071 26738 ft 525 kts 41°
2026-05-08 11:46 27.71735 117.15027 26731 ft 525 kts 41°
2026-05-08 11:47 27.74278 117.17989 26731 ft 525 kts 41°
2026-05-08 11:47 27.76813 117.20941 26741 ft 524 kts 41°
2026-05-08 11:47 27.79968 117.24615 26741 ft 524 kts 41°
2026-05-08 11:47 27.82513 117.27573 26744 ft 524 kts 41°
2026-05-08 11:48 27.85048 117.30523 26738 ft 524 kts 41°
2026-05-08 11:48 27.87590 117.33481 26749 ft 524 kts 41°
2026-05-08 11:48 27.90118 117.36423 26750 ft 524 kts 41°
2026-05-08 11:48 27.92650 117.39374 26745 ft 524 kts 41°
2026-05-08 11:49 27.94340 117.41345 26760 ft 524 kts 41°
2026-05-08 11:49 27.97733 117.45304 26753 ft 524 kts 41°
2026-05-08 11:49 27.99410 117.47265 26755 ft 524 kts 41°
2026-05-08 11:49 28.01947 117.50238 26757 ft 524 kts 41°
2026-05-08 11:50 28.05330 117.54212 26761 ft 524 kts 42°
2026-05-08 11:50 28.07003 117.56177 26765 ft 524 kts 42°
2026-05-08 11:50 28.09532 117.59146 26765 ft 524 kts 42°
2026-05-08 11:50 28.12069 117.62120 26766 ft 524 kts 41°
2026-05-08 11:51 28.14602 117.65087 26768 ft 524 kts 41°
2026-05-08 11:51 28.17141 117.68058 26769 ft 524 kts 41°
2026-05-08 11:51 28.19675 117.71029 26771 ft 524 kts 41°
2026-05-08 11:51 28.22210 117.74013 26771 ft 525 kts 42°
2026-05-08 11:52 28.24734 117.76991 26770 ft 523 kts 42°
2026-05-08 11:52 28.27242 117.79954 26771 ft 520 kts 42°
2026-05-08 11:52 28.29748 117.82913 26771 ft 519 kts 42°
2026-05-08 11:52 28.32253 117.85870 26774 ft 519 kts 42°
2026-05-08 11:53 28.34751 117.88821 26772 ft 519 kts 42°
2026-05-08 11:53 28.37257 117.91780 26774 ft 519 kts 42°
2026-05-08 11:53 28.39758 117.94736 26774 ft 519 kts 42°
2026-05-08 11:53 28.42259 117.97696 26774 ft 519 kts 42°
2026-05-08 11:54 28.44738 118.00676 26779 ft 520 kts 43°
2026-05-08 11:54 28.47196 118.03686 26773 ft 520 kts 43°
2026-05-08 11:54 28.49613 118.06682 26775 ft 521 kts 43°
2026-05-08 11:54 28.52051 118.09718 26769 ft 521 kts 43°
2026-05-08 11:55 28.54495 118.12760 26768 ft 521 kts 43°
2026-05-08 11:55 28.56945 118.15798 26766 ft 521 kts 43°
2026-05-08 11:55 28.59394 118.18820 26766 ft 521 kts 43°
2026-05-08 11:55 28.61861 118.21857 26767 ft 521 kts 43°
2026-05-08 11:56 28.64317 118.24879 26787 ft 521 kts 43°
2026-05-08 11:56 28.66773 118.27906 26781 ft 522 kts 43°
2026-05-08 11:56 28.69235 118.30942 26777 ft 522 kts 43°
2026-05-08 11:56 28.71692 118.33982 26775 ft 522 kts 43°
2026-05-08 11:57 28.74152 118.37034 26772 ft 522 kts 43°
2026-05-08 11:57 28.76606 118.40080 26775 ft 522 kts 43°
2026-05-08 11:57 28.79076 118.43144 26777 ft 523 kts 43°
2026-05-08 11:57 28.81529 118.46195 26770 ft 522 kts 43°
2026-05-08 11:58 28.83986 118.49249 26429 ft 522 kts 43°
2026-05-08 11:58 28.86449 118.52310 26058 ft 525 kts 44°
2026-05-08 11:58 28.88914 118.55374 25699 ft 526 kts 44°
2026-05-08 11:59 28.93880 118.61560 24969 ft 530 kts 44°
2026-05-08 11:59 28.96370 118.64665 24616 ft 532 kts 44°
2026-05-08 11:59 28.98867 118.67786 24256 ft 533 kts 44°
2026-05-08 11:59 29.01361 118.70906 23908 ft 533 kts 44°
2026-05-08 12:00 29.03865 118.74038 23512 ft 531 kts 44°
2026-05-08 12:00 29.06339 118.77135 23112 ft 525 kts 45°
2026-05-08 12:00 29.08800 118.80220 22710 ft 520 kts 44°
2026-05-08 12:00 29.11227 118.83263 22302 ft 517 kts 45°
2026-05-08 12:01 29.13639 118.86290 21903 ft 513 kts 45°
2026-05-08 12:01 29.16037 118.89301 21504 ft 510 kts 45°
2026-05-08 12:01 29.18420 118.92291 21122 ft 506 kts 45°
2026-05-08 12:01 29.20782 118.95252 20894 ft 503 kts 45°
2026-05-08 12:02 29.23142 118.98211 20921 ft 503 kts 45°
2026-05-08 12:02 29.25496 119.01164 20688 ft 497 kts 45°
2026-05-08 12:02 29.27779 119.04039 20129 ft 495 kts 45°
2026-05-08 12:02 29.30091 119.06958 19663 ft 493 kts 45°
2026-05-08 12:03 29.32382 119.09857 19207 ft 490 kts 45°
2026-05-08 12:03 29.34653 119.12735 18751 ft 486 kts 45°
2026-05-08 12:03 29.36917 119.15602 18279 ft 483 kts 46°
2026-05-08 12:03 29.39167 119.18454 17761 ft 479 kts 46°
2026-05-08 12:04 29.41389 119.21273 17260 ft 474 kts 46°
2026-05-08 12:04 29.43585 119.24061 16774 ft 469 kts 46°
2026-05-08 12:04 29.45762 119.26829 16279 ft 463 kts 46°
2026-05-08 12:04 29.47907 119.29557 15800 ft 459 kts 46°
2026-05-08 12:05 29.50028 119.32257 15319 ft 453 kts 47°
2026-05-08 12:05 29.52134 119.34939 15053 ft 450 kts 47°
2026-05-08 12:05 29.54224 119.37599 15010 ft 448 kts 47°
2026-05-08 12:05 29.56312 119.40256 15033 ft 449 kts 47°
2026-05-08 12:06 29.58399 119.42912 15004 ft 448 kts 47°
2026-05-08 12:06 29.60472 119.45554 14438 ft 441 kts 47°
2026-05-08 12:06 29.62574 119.48084 13759 ft 435 kts 42°
2026-05-08 12:06 29.64871 119.50287 13220 ft 425 kts 34°
2026-05-08 12:07 29.67296 119.52194 12981 ft 421 kts 32°
2026-05-08 12:07 29.69684 119.54056 12790 ft 405 kts 32°
2026-05-08 12:07 29.71955 119.55837 12657 ft 386 kts 32°
2026-05-08 12:07 29.74123 119.57539 12533 ft 369 kts 32°
2026-05-08 12:08 29.76203 119.59169 12410 ft 353 kts 32°
2026-05-08 12:08 29.78192 119.60729 12281 ft 338 kts 32°
2026-05-08 12:08 29.80062 119.62199 12128 ft 315 kts 32°
2026-05-08 12:08 29.81836 119.63594 11662 ft 305 kts 32°
2026-05-08 12:09 29.83569 119.64967 11119 ft 299 kts 35°
2026-05-08 12:09 29.85138 119.66512 10566 ft 295 kts 43°
2026-05-08 12:09 29.86462 119.68241 10346 ft 279 kts 50°
2026-05-08 12:09 29.87520 119.69998 10153 ft 263 kts 54°
2026-05-08 12:10 29.88511 119.71739 9713 ft 257 kts 54°
2026-05-08 12:10 29.89485 119.73448 9230 ft 252 kts 55°
2026-05-08 12:10 29.90426 119.75094 8899 ft 242 kts 56°
2026-05-08 12:10 29.91340 119.76696 8494 ft 237 kts 56°
2026-05-08 12:11 29.92238 119.78273 8062 ft 234 kts 56°
2026-05-08 12:11 29.93126 119.79837 7651 ft 231 kts 57°
2026-05-08 12:11 29.94003 119.81381 7244 ft 229 kts 58°
2026-05-08 12:11 29.94848 119.82871 7091 ft 214 kts 58°
2026-05-08 12:12 29.95641 119.84271 6890 ft 205 kts 58°
2026-05-08 12:12 29.96410 119.85628 6574 ft 200 kts 59°
2026-05-08 12:12 29.97169 119.86967 6182 ft 199 kts 59°
2026-05-08 12:12 29.97920 119.88294 5789 ft 197 kts 59°
2026-05-08 12:13 29.98665 119.89606 5411 ft 195 kts 59°
2026-05-08 12:13 29.99404 119.90907 5045 ft 193 kts 60°
2026-05-08 12:13 30.00130 119.92192 4923 ft 191 kts 60°
2026-05-08 12:13 30.00857 119.93478 4917 ft 192 kts 60°
2026-05-08 12:14 30.01585 119.94768 4920 ft 192 kts 60°
2026-05-08 12:14 30.02313 119.96057 4917 ft 191 kts 61°
2026-05-08 12:14 30.03040 119.97341 4920 ft 191 kts 60°
2026-05-08 12:14 30.03765 119.98618 4918 ft 190 kts 60°
2026-05-08 12:15 30.04487 119.99896 4922 ft 190 kts 60°
2026-05-08 12:15 30.05208 120.01179 4921 ft 190 kts 61°
2026-05-08 12:15 30.05930 120.02462 4924 ft 191 kts 61°
2026-05-08 12:15 30.06652 120.03745 4919 ft 191 kts 61°
2026-05-08 12:16 30.07375 120.05030 4923 ft 191 kts 60°
2026-05-08 12:16 30.08097 120.06312 4920 ft 191 kts 60°
2026-05-08 12:16 30.08816 120.07583 4900 ft 184 kts 60°
2026-05-08 12:16 30.09483 120.08807 4618 ft 178 kts 63°
2026-05-08 12:17 30.10082 120.10051 4281 ft 177 kts 65°
2026-05-08 12:17 30.10647 120.11284 3983 ft 175 kts 65°
2026-05-08 12:17 30.11205 120.12523 3918 ft 175 kts 65°
2026-05-08 12:17 30.11768 120.13778 3921 ft 176 kts 65°
2026-05-08 12:18 30.12328 120.15030 3916 ft 176 kts 65°
2026-05-08 12:18 30.12887 120.16280 3915 ft 175 kts 65°
2026-05-08 12:18 30.13448 120.17537 3916 ft 176 kts 65°
2026-05-08 12:18 30.14006 120.18787 3911 ft 175 kts 64°
2026-05-08 12:19 30.14567 120.20043 3881 ft 176 kts 65°
2026-05-08 12:19 30.15129 120.21303 3715 ft 176 kts 65°
2026-05-08 12:19 30.15685 120.22548 3511 ft 171 kts 65°
2026-05-08 12:19 30.16210 120.23724 3292 ft 158 kts 65°
2026-05-08 12:20 30.16696 120.24813 3089 ft 147 kts 65°
2026-05-08 12:20 30.17143 120.25816 2918 ft 134 kts 65°
2026-05-08 12:20 30.17560 120.26751 2733 ft 128 kts 65°
2026-05-08 12:20 30.17962 120.27656 2555 ft 126 kts 65°
2026-05-08 12:21 30.18362 120.28553 2387 ft 125 kts 65°
2026-05-08 12:21 30.18760 120.29448 2219 ft 125 kts 66°
2026-05-08 12:21 30.19154 120.30335 2050 ft 124 kts 65°
2026-05-08 12:21 30.19548 120.31225 1864 ft 124 kts 65°
2026-05-08 12:22 30.19940 120.32109 1687 ft 124 kts 66°
2026-05-08 12:22 30.20335 120.33000 1518 ft 125 kts 66°
2026-05-08 12:22 30.20733 120.33890 1352 ft 125 kts 65°
2026-05-08 12:22 30.21132 120.34791 1190 ft 127 kts 65°
2026-05-08 12:23 30.21543 120.35693 1019 ft 127 kts 65°
2026-05-08 12:23 30.21953 120.36604 847 ft 128 kts 64°
2026-05-08 12:23 30.22351 120.37525 693 ft 127 kts 66°
2026-05-08 12:23 30.22755 120.38437 506 ft 128 kts 64°
2026-05-08 12:24 30.23165 120.39352 361 ft 128 kts 64°
2026-05-08 12:24 30.23575 120.40274 171 ft 128 kts 64°
2026-05-08 12:24 30.23978 120.41185 40 ft 125 kts 65°
2026-05-08 12:24 30.24299 120.41932 34 ft 68 kts 60°
2026-05-08 12:25 30.24417 120.42182 32 ft 25 kts 63°
2026-05-08 12:25 30.24496 120.42366 31 ft 26 kts 63°
2026-05-08 12:25 30.24564 120.42554 30 ft 21 kts 91°
2026-05-08 12:25 30.24558 120.42689 31 ft 17 kts 90°
2026-05-08 12:26 30.24530 120.42771 31 ft 9 kts 158°
2026-05-08 12:26 30.24479 120.42763 32 ft 7 kts 223°
2026-05-08 12:26 30.24437 120.42759 32 ft 6 kts 158°
2026-05-08 12:26 30.24401 120.42779 32 ft 5 kts 153°
2026-05-08 12:27 30.24368 120.42799 32 ft 7 kts 154°
2026-05-08 12:27 30.24318 120.42827 31 ft 8 kts 153°
2026-05-08 12:27 30.24290 120.42853 32 ft 4 kts 123°
2026-05-08 12:27 30.24275 120.42900 32 ft 7 kts 110°
2026-05-08 12:28 30.24260 120.42943 32 ft 4 kts 112°
2026-05-08 12:28 30.24253 120.42962 32 ft 0 kts 112°